Hourly Data Report for December 31, 2002

TORONTO CITY
ONTARIO

43°40'00.000" N
79°24'00.000" W
112.50 m
6158355
71508
XTO

Download Data

Hourly Data (December 2002)
Hourly Data Report for December 31, 2002
TIME
LST
Temp Definition
°C
Dew Point Definition
°C
Rel Hum Definition
%
Precip. Amount Definition
mm

Wind Dir Definition
10's deg

Wind Spd Definition
km/h
Visibility Definition
km
Stn Press Definition
kPa
Hmdx Definition


Wind Chill Definition


Weather Definition


00:00 5.9 5.9 100   LegendMM LegendMM LegendMM 99.49     LegendNANA
01:00 5.9 5.9 100   LegendMM LegendMM LegendMM 99.44     LegendNANA
02:00 6.0 6.0 100   LegendMM LegendMM LegendMM 99.45     LegendNANA
03:00 6.4 6.3 99   LegendMM LegendMM LegendMM 99.48     LegendNANA
04:00 6.7 6.4 98   LegendMM LegendMM LegendMM 99.45     LegendNANA
05:00 6.9 6.5 97   LegendMM LegendMM LegendMM 99.42     LegendNANA
06:00 7.2 6.8 97   LegendMM LegendMM LegendMM 99.42     LegendNANA
07:00 7.2 6.9 98   LegendMM LegendMM LegendMM 99.45     LegendNANA
08:00 7.9 7.5 97   LegendMM LegendMM LegendMM 99.53     LegendNANA
09:00 7.8 7.4 97   LegendMM LegendMM LegendMM 99.58     LegendNANA
10:00 8.3 7.9 97   LegendMM LegendMM LegendMM 99.60     LegendNANA
11:00 8.4 6.0 85   LegendMM LegendMM LegendMM 99.56     LegendNANA
12:00 8.0 4.4 78   LegendMM LegendMM LegendMM 99.50     LegendNANA
13:00 7.9 3.4 73   LegendMM LegendMM LegendMM 99.46     LegendNANA
14:00 6.9 0.6 64   LegendMM LegendMM LegendMM 99.50     LegendNANA
15:00 5.8 1.0 71   LegendMM LegendMM LegendMM 99.56     LegendNANA
16:00 4.7 1.0 77   LegendMM LegendMM LegendMM 99.65     LegendNANA
17:00 4.4 0.7 77   LegendMM LegendMM LegendMM 99.77     LegendNANA
18:00 3.3 -0.4 77   LegendMM LegendMM LegendMM 99.82     LegendNANA
19:00 2.7 -1.6 73     0 LegendMM 99.90     LegendNANA
20:00 2.4 -2.2 72     0 LegendMM 99.99     LegendNANA
21:00 2.1 -3.1 68     0 LegendMM 100.11     LegendNANA
22:00 1.6 -4.0 66     0 LegendMM 100.15     LegendNANA
23:00 1.3 -4.2 67     0 LegendMM 100.17     LegendNANA

Notes on Data Quality.

Legend

  • E = Estimated
  • M = Missing
  • NA = Not Available*
  • [empty] = Indicates an unobserved value
Date modified: